CPA156 YBBN-VHHH

Flight info

Callsign CPA156
Flight time N/A
Altitude 34000
Route BIXAD Q67 UPOLO DCT MEMOS B473 SAMGE/N0495F360 B473 DAO W8 MCT W11 MIA W16 AVMUP A461 NOMAN V533 BETTY
Aircraft B77W/H-SDE1E2E3FGHIJ2J3J4J5M1RWXY/LB1D1

Departure

Time 2026-05-05 09:12
Airport Brisbane International Airport (YBBN)

Arrival

Time N/A
Airport Hong Kong International Airport (VHHH)
Time Latitude Longitude Altitude Speed Heading
2026-05-05 08:20 -27.40532 153.11036 23 ft 0 kts 308°
2026-05-05 08:48 -27.40537 153.11044 22 ft 4 kts 314°
2026-05-05 08:48 -27.40559 153.11059 25 ft 4 kts 346°
2026-05-05 08:49 -27.40582 153.11065 25 ft 1 kts 339°
2026-05-05 08:49 -27.40586 153.11067 24 ft 0 kts 339°
2026-05-05 08:56 -27.40575 153.11071 25 ft 4 kts 26°
2026-05-05 08:56 -27.40545 153.11145 25 ft 11 kts 97°
2026-05-05 08:56 -27.40576 153.11223 25 ft 11 kts 115°
2026-05-05 08:56 -27.40551 153.11295 25 ft 11 kts 39°
2026-05-05 08:57 -27.40484 153.11339 25 ft 11 kts 29°
2026-05-05 08:57 -27.40415 153.11377 26 ft 11 kts 26°
2026-05-05 08:57 -27.40348 153.11416 23 ft 11 kts 26°
2026-05-05 08:57 -27.40280 153.11456 27 ft 11 kts 28°
2026-05-05 08:58 -27.40252 153.11509 26 ft 8 kts 89°
2026-05-05 08:58 -27.40267 153.11556 26 ft 0 kts 115°
2026-05-05 08:59 -27.40268 153.11558 26 ft 1 kts 110°
2026-05-05 08:59 -27.40253 153.11592 25 ft 9 kts 44°
2026-05-05 08:59 -27.40185 153.11650 24 ft 13 kts 30°
2026-05-05 08:59 -27.40104 153.11695 24 ft 13 kts 25°
2026-05-05 09:00 -27.40024 153.11689 25 ft 12 kts 309°
2026-05-05 09:00 -27.39973 153.11642 23 ft 8 kts
2026-05-05 09:00 -27.39918 153.11665 24 ft 9 kts 25°
2026-05-05 09:00 -27.39853 153.11702 27 ft 13 kts 26°
2026-05-05 09:01 -27.39747 153.11761 23 ft 21 kts 26°
2026-05-05 09:01 -27.39594 153.11850 27 ft 28 kts 29°
2026-05-05 09:01 -27.39451 153.11930 23 ft 13 kts 27°
2026-05-05 09:01 -27.39373 153.11973 26 ft 12 kts 27°
2026-05-05 09:02 -27.39297 153.12018 25 ft 12 kts 28°
2026-05-05 09:02 -27.39221 153.12062 24 ft 12 kts 27°
2026-05-05 09:02 -27.39143 153.12107 25 ft 13 kts 27°
2026-05-05 09:02 -27.39065 153.12153 24 ft 13 kts 27°
2026-05-05 09:03 -27.38976 153.12201 27 ft 20 kts 26°
2026-05-05 09:03 -27.38833 153.12283 24 ft 23 kts 27°
2026-05-05 09:03 -27.38694 153.12363 23 ft 21 kts 26°
2026-05-05 09:03 -27.38564 153.12436 26 ft 21 kts 26°
2026-05-05 09:04 -27.38437 153.12509 24 ft 20 kts 28°
2026-05-05 09:04 -27.38316 153.12580 26 ft 19 kts 24°
2026-05-05 09:04 -27.38199 153.12646 27 ft 19 kts 28°
2026-05-05 09:04 -27.38084 153.12711 26 ft 17 kts 27°
2026-05-05 09:05 -27.37979 153.12763 26 ft 15 kts
2026-05-05 09:05 -27.37916 153.12691 25 ft 13 kts 298°
2026-05-05 09:05 -27.37874 153.12602 26 ft 14 kts 297°
2026-05-05 09:05 -27.37814 153.12468 26 ft 21 kts 297°
2026-05-05 09:06 -27.37747 153.12322 27 ft 21 kts 295°
2026-05-05 09:06 -27.37682 153.12178 25 ft 20 kts 298°
2026-05-05 09:06 -27.37617 153.12035 23 ft 21 kts 299°
2026-05-05 09:06 -27.37551 153.11891 24 ft 21 kts 296°
2026-05-05 09:07 -27.37476 153.11725 26 ft 25 kts 296°
2026-05-05 09:07 -27.37406 153.11573 24 ft 18 kts 294°
2026-05-05 09:07 -27.37448 153.11499 23 ft 11 kts 208°
2026-05-05 09:07 -27.37560 153.11434 26 ft 24 kts 206°
2026-05-05 09:08 -27.37699 153.11354 27 ft 22 kts 206°
2026-05-05 09:08 -27.37837 153.11275 25 ft 22 kts 206°
2026-05-05 09:08 -27.37973 153.11199 24 ft 22 kts 207°
2026-05-05 09:08 -27.38109 153.11120 23 ft 22 kts 207°
2026-05-05 09:09 -27.38244 153.11042 25 ft 22 kts 206°
2026-05-05 09:09 -27.38371 153.10972 24 ft 19 kts 207°
2026-05-05 09:09 -27.38431 153.10876 26 ft 14 kts 284°
2026-05-05 09:09 -27.38401 153.10800 36 ft 0 kts 298°
2026-05-05 09:10 -27.38397 153.10791 31 ft 7 kts 298°
2026-05-05 09:10 -27.38331 153.10702 30 ft 20 kts 337°
2026-05-05 09:11 -27.38188 153.10749 30 ft 26 kts 25°
2026-05-05 09:11 -27.37921 153.10904 27 ft 72 kts 27°
2026-05-05 09:11 -27.37255 153.11282 28 ft 140 kts 27°
2026-05-05 09:11 -27.36210 153.11877 26 ft 193 kts 26°
2026-05-05 09:12 -27.34936 153.12608 355 ft 204 kts 29°
2026-05-05 09:12 -27.33727 153.13349 1096 ft 197 kts 30°
2026-05-05 09:12 -27.32492 153.14113 1415 ft 212 kts 28°
2026-05-05 09:12 -27.31105 153.14883 1611 ft 233 kts 26°
2026-05-05 09:13 -27.29580 153.15721 1846 ft 253 kts 27°
2026-05-05 09:13 -27.27977 153.16610 2360 ft 262 kts 27°
2026-05-05 09:13 -27.26320 153.17540 2899 ft 270 kts 27°
2026-05-05 09:13 -27.24632 153.18496 3560 ft 273 kts 27°
2026-05-05 09:14 -27.22929 153.19463 4242 ft 275 kts 28°
2026-05-05 09:14 -27.21214 153.20439 4932 ft 277 kts 28°
2026-05-05 09:14 -27.19484 153.21420 5577 ft 277 kts 26°
2026-05-05 09:14 -27.17651 153.22077 6074 ft 281 kts
2026-05-05 09:15 -27.15693 153.22342 6662 ft 285 kts
2026-05-05 09:15 -27.13712 153.22539 7270 ft 287 kts
2026-05-05 09:15 -27.11715 153.22747 7873 ft 290 kts
2026-05-05 09:15 -27.09698 153.22982 8469 ft 293 kts
2026-05-05 09:16 -27.07665 153.23238 9055 ft 296 kts
2026-05-05 09:16 -27.05643 153.23502 9639 ft 298 kts
2026-05-05 09:16 -27.03570 153.23776 10196 ft 302 kts
2026-05-05 09:16 -27.01428 153.24000 10442 ft 319 kts
2026-05-05 09:17 -26.99144 153.24072 10599 ft 338 kts
2026-05-05 09:17 -26.96721 153.24098 10747 ft 359 kts
2026-05-05 09:17 -26.94161 153.24121 10994 ft 375 kts 360°
2026-05-05 09:17 -26.91528 153.24156 11581 ft 381 kts 360°
2026-05-05 09:18 -26.88867 153.24201 12342 ft 383 kts 359°
2026-05-05 09:18 -26.86210 153.24254 13250 ft 382 kts 359°
2026-05-05 09:18 -26.83555 153.24311 14116 ft 381 kts 358°
2026-05-05 09:18 -26.80900 153.24368 14785 ft 384 kts 358°
2026-05-05 09:19 -26.78214 153.24426 15410 ft 388 kts 358°
2026-05-05 09:19 -26.75503 153.24485 16051 ft 391 kts 357°
2026-05-05 09:19 -26.72775 153.24544 16740 ft 394 kts 357°
2026-05-05 09:19 -26.70033 153.24595 17398 ft 394 kts 355°
2026-05-05 09:20 -26.67336 153.24197 17896 ft 387 kts 340°
2026-05-05 09:20 -26.64751 153.23252 18297 ft 395 kts 338°
2026-05-05 09:20 -26.62138 153.22286 18882 ft 397 kts 338°
2026-05-05 09:20 -26.59511 153.21338 19553 ft 397 kts 338°
2026-05-05 09:21 -26.56873 153.20403 20165 ft 399 kts 338°
2026-05-05 09:21 -26.54214 153.19473 20731 ft 402 kts 338°
2026-05-05 09:21 -26.51533 153.18542 21285 ft 405 kts 338°
2026-05-05 09:21 -26.48832 153.17608 21837 ft 408 kts 338°
2026-05-05 09:22 -26.46112 153.16670 22397 ft 410 kts 338°
2026-05-05 09:22 -26.43378 153.15727 22938 ft 413 kts 338°
2026-05-05 09:22 -26.40627 153.14778 23466 ft 415 kts 338°
2026-05-05 09:22 -26.37858 153.13823 23933 ft 417 kts 338°
2026-05-05 09:23 -26.35077 153.12865 24346 ft 419 kts 338°
2026-05-05 09:23 -26.32321 153.11911 24761 ft 421 kts 336°
2026-05-05 09:23 -26.29596 153.10724 25161 ft 419 kts 330°
2026-05-05 09:23 -26.26990 153.09258 25570 ft 420 kts 327°
2026-05-05 09:24 -26.24472 153.07603 25986 ft 420 kts 323°
2026-05-05 09:24 -26.22097 153.05715 26364 ft 420 kts 320°
2026-05-05 09:24 -26.19743 153.03763 26770 ft 422 kts 320°
2026-05-05 09:24 -26.17386 153.01805 27175 ft 424 kts 320°
2026-05-05 09:25 -26.15012 152.99849 27571 ft 426 kts 320°
2026-05-05 09:25 -26.12620 152.97892 27942 ft 428 kts 320°
2026-05-05 09:25 -26.10216 152.95933 28315 ft 429 kts 321°
2026-05-05 09:25 -26.07792 152.93977 28672 ft 431 kts 321°
2026-05-05 09:26 -26.05348 152.92015 29007 ft 433 kts 321°
2026-05-05 09:26 -26.03728 152.90719 29241 ft 434 kts 321°
2026-05-05 09:26 -26.01271 152.88752 29548 ft 436 kts 321°
2026-05-05 09:26 -25.97975 152.86114 29972 ft 437 kts 321°
2026-05-05 09:27 -25.96335 152.84801 30194 ft 438 kts 321°
2026-05-05 09:27 -25.93866 152.82824 30516 ft 437 kts 321°
2026-05-05 09:27 -25.91406 152.80855 30860 ft 435 kts 321°
2026-05-05 09:27 -25.88950 152.78890 31197 ft 434 kts 321°
2026-05-05 09:28 -25.86500 152.76930 31524 ft 434 kts 321°
2026-05-05 09:28 -25.83261 152.74339 31944 ft 433 kts 321°
2026-05-05 09:28 -25.80822 152.72390 32242 ft 432 kts 321°
2026-05-05 09:28 -25.79175 152.71075 32440 ft 431 kts 321°
2026-05-05 09:29 -25.76743 152.69133 32728 ft 431 kts 321°
2026-05-05 09:29 -25.74313 152.67193 33027 ft 430 kts 321°
2026-05-05 09:29 -25.71888 152.65258 33319 ft 429 kts 321°
2026-05-05 09:29 -25.69498 152.63352 33614 ft 428 kts 321°
2026-05-05 09:30 -25.67053 152.61404 33891 ft 427 kts 321°
2026-05-05 09:30 -25.64670 152.59506 33995 ft 429 kts 321°
2026-05-05 09:30 -25.62242 152.57572 34052 ft 430 kts 321°
2026-05-05 09:31 -25.57400 152.53721 34082 ft 426 kts 321°
2026-05-05 09:31 -25.52594 152.49902 34084 ft 424 kts 321°
2026-05-05 09:32 -25.47804 152.46100 34089 ft 423 kts 321°
2026-05-05 09:32 -25.43021 152.42306 34089 ft 423 kts 321°
2026-05-05 09:33 -25.38226 152.38506 34091 ft 425 kts 321°
2026-05-05 09:33 -25.33408 152.34692 34092 ft 426 kts 321°
2026-05-05 09:34 -25.28577 152.30872 34090 ft 427 kts 321°
2026-05-05 09:34 -25.23765 152.27070 34088 ft 429 kts 321°
2026-05-05 09:35 -25.18907 152.23237 34089 ft 429 kts 321°
2026-05-05 09:35 -25.11601 152.17478 34086 ft 430 kts 321°
2026-05-05 09:36 -25.06735 152.13646 34085 ft 429 kts 321°
2026-05-05 09:36 -25.01874 152.09826 34082 ft 428 kts 321°
2026-05-05 09:37 -24.97047 152.06046 34080 ft 428 kts 321°
2026-05-05 09:37 -24.92188 152.02247 34079 ft 427 kts 321°
2026-05-05 09:38 -24.87346 151.98461 34087 ft 426 kts 321°
2026-05-05 09:38 -24.82506 151.94680 34082 ft 426 kts 321°
2026-05-05 09:39 -24.77675 151.90910 34081 ft 425 kts 321°
2026-05-05 09:39 -24.72879 151.87171 34092 ft 425 kts 321°
2026-05-05 09:40 -24.68055 151.83412 34078 ft 425 kts 321°
2026-05-05 09:40 -24.63219 151.79650 34078 ft 425 kts 321°
2026-05-05 09:41 -24.58392 151.75897 34074 ft 425 kts 321°
2026-05-05 09:41 -24.53559 151.72143 34083 ft 425 kts 321°
2026-05-05 09:42 -24.48721 151.68390 34080 ft 426 kts 321°
2026-05-05 09:42 -24.43870 151.64629 34074 ft 426 kts 321°
2026-05-05 09:43 -24.39020 151.60872 34086 ft 426 kts 321°
2026-05-05 09:43 -24.34167 151.57118 34081 ft 427 kts 321°
2026-05-05 09:44 -24.29305 151.53360 34082 ft 427 kts 321°
2026-05-05 09:44 -24.24476 151.49631 34081 ft 428 kts 321°
2026-05-05 09:45 -24.19611 151.45877 34078 ft 428 kts 321°
2026-05-05 09:45 -24.14746 151.42128 34078 ft 428 kts 321°
2026-05-05 09:46 -24.09876 151.38377 34074 ft 428 kts 321°
2026-05-05 09:46 -24.05005 151.34630 34072 ft 427 kts 321°
2026-05-05 09:47 -24.00141 151.30891 34074 ft 427 kts 321°
2026-05-05 09:47 -23.95276 151.27154 34070 ft 427 kts 321°
2026-05-05 09:48 -23.90420 151.23428 34072 ft 426 kts 321°
2026-05-05 09:48 -23.85524 151.19763 34073 ft 428 kts 324°
2026-05-05 09:49 -23.80382 151.16463 34079 ft 429 kts 325°
2026-05-05 09:49 -23.75233 151.13177 34073 ft 429 kts 325°
2026-05-05 09:50 -23.70086 151.09883 34074 ft 429 kts 324°
2026-05-05 09:50 -23.64943 151.06586 34073 ft 429 kts 324°
2026-05-05 09:51 -23.59829 151.03309 34068 ft 429 kts 324°
2026-05-05 09:51 -23.54683 151.00014 34063 ft 429 kts 324°
2026-05-05 09:52 -23.49532 150.96719 34073 ft 429 kts 324°
2026-05-05 09:52 -23.44375 150.93423 34065 ft 429 kts 324°
2026-05-05 09:53 -23.39218 150.90131 34069 ft 430 kts 324°
2026-05-05 09:53 -23.34060 150.86842 34068 ft 430 kts 324°
2026-05-05 09:54 -23.28890 150.83547 34066 ft 430 kts 324°
2026-05-05 09:54 -23.23725 150.80258 34071 ft 430 kts 324°
2026-05-05 09:55 -23.18590 150.76992 34068 ft 430 kts 324°
2026-05-05 09:55 -23.13429 150.73713 34074 ft 430 kts 324°
2026-05-05 09:56 -23.08261 150.70430 34068 ft 430 kts 324°
2026-05-05 09:56 -23.03095 150.67154 34065 ft 430 kts 324°
2026-05-05 09:57 -22.97926 150.63877 34066 ft 430 kts 324°
2026-05-05 09:57 -22.92765 150.60609 34060 ft 430 kts 325°
2026-05-05 09:58 -22.87603 150.57343 34064 ft 430 kts 324°
2026-05-05 09:58 -22.82433 150.54075 34065 ft 430 kts 324°
2026-05-05 09:59 -22.77255 150.50804 34061 ft 430 kts 324°
2026-05-05 09:59 -22.72081 150.47540 34068 ft 430 kts 325°
2026-05-05 10:00 -22.66905 150.44277 34058 ft 430 kts 324°
2026-05-05 10:00 -22.61730 150.41016 34060 ft 430 kts 324°
2026-05-05 10:01 -22.56581 150.37776 34058 ft 430 kts 324°
2026-05-05 10:01 -22.51398 150.34517 34066 ft 430 kts 324°
2026-05-05 10:02 -22.46223 150.31265 34060 ft 431 kts 324°
2026-05-05 10:02 -22.41041 150.28012 34060 ft 431 kts 324°
2026-05-05 10:03 -22.35856 150.24759 34058 ft 431 kts 324°
2026-05-05 10:03 -22.30664 150.21505 34066 ft 431 kts 324°
2026-05-05 10:04 -22.25467 150.18243 34058 ft 431 kts 324°
2026-05-05 10:04 -22.20358 150.14920 34069 ft 431 kts 323°
2026-05-05 10:05 -22.15232 150.11548 34056 ft 431 kts 323°
2026-05-05 10:05 -22.10104 150.08186 34057 ft 431 kts 323°
2026-05-05 10:06 -22.04964 150.04830 34055 ft 432 kts 324°
2026-05-05 10:06 -21.99816 150.01474 34057 ft 432 kts 324°
2026-05-05 10:07 -21.94662 149.98118 34060 ft 433 kts 324°
2026-05-05 10:07 -21.89536 149.94783 34057 ft 433 kts 324°
2026-05-05 10:08 -21.84378 149.91430 34065 ft 433 kts 324°
2026-05-05 10:08 -21.79219 149.88079 34061 ft 434 kts 324°
2026-05-05 10:09 -21.74044 149.84721 34061 ft 434 kts 324°
2026-05-05 10:09 -21.68872 149.81367 34045 ft 434 kts 324°
2026-05-05 10:10 -21.63693 149.78011 34055 ft 434 kts 324°
2026-05-05 10:10 -21.58548 149.74681 34051 ft 434 kts 324°
2026-05-05 10:11 -21.53366 149.71329 34052 ft 435 kts 324°
2026-05-05 10:11 -21.48179 149.67977 34051 ft 435 kts 324°
2026-05-05 10:12 -21.42987 149.64625 34052 ft 435 kts 324°
2026-05-05 10:12 -21.37790 149.61272 34054 ft 436 kts 324°
2026-05-05 10:13 -21.32590 149.57919 34051 ft 436 kts 324°
2026-05-05 10:13 -21.28263 149.55132 34055 ft 437 kts 324°
2026-05-05 10:14 -21.23049 149.51776 34053 ft 437 kts 324°
2026-05-05 10:14 -21.16988 149.47879 34053 ft 437 kts 324°
2026-05-05 10:15 -21.12641 149.45086 34053 ft 438 kts 324°
2026-05-05 10:15 -21.07418 149.41733 34049 ft 438 kts 324°
2026-05-05 10:16 -21.02183 149.38374 34052 ft 438 kts 324°
2026-05-05 10:16 -20.96948 149.35019 34052 ft 439 kts 324°
2026-05-05 10:17 -20.91707 149.31662 34052 ft 439 kts 324°
2026-05-05 10:17 -20.86459 149.28304 34048 ft 440 kts 324°
2026-05-05 10:18 -20.81209 149.24947 34052 ft 440 kts 324°
2026-05-05 10:18 -20.75952 149.21588 34053 ft 440 kts 324°
2026-05-05 10:19 -20.70690 149.18229 34050 ft 441 kts 324°
2026-05-05 10:19 -20.65423 149.14870 34051 ft 441 kts 324°
2026-05-05 10:20 -20.60156 149.11513 34050 ft 441 kts 324°
2026-05-05 10:20 -20.54881 149.08154 34049 ft 441 kts 324°
2026-05-05 10:21 -20.49609 149.04798 34050 ft 442 kts 324°
2026-05-05 10:21 -20.44354 149.01457 34048 ft 442 kts 324°
2026-05-05 10:22 -20.39070 148.98099 34048 ft 442 kts 324°
2026-05-05 10:22 -20.33917 148.94626 34052 ft 439 kts 319°
2026-05-05 10:23 -20.29156 148.90576 34052 ft 438 kts 317°
2026-05-05 10:23 -20.24398 148.86526 34047 ft 438 kts 317°
2026-05-05 10:24 -20.19619 148.82481 34048 ft 439 kts 317°
2026-05-05 10:24 -20.14834 148.78439 34049 ft 439 kts 317°
2026-05-05 10:25 -20.10040 148.74394 34048 ft 440 kts 317°
2026-05-05 10:25 -20.05246 148.70351 34048 ft 440 kts 317°
2026-05-05 10:26 -20.00442 148.66302 34049 ft 440 kts 317°
2026-05-05 10:26 -19.95661 148.62277 34046 ft 441 kts 317°
2026-05-05 10:27 -19.90854 148.58232 34046 ft 441 kts 317°
2026-05-05 10:27 -19.86042 148.54187 34044 ft 441 kts 317°
2026-05-05 10:28 -19.81221 148.50137 34042 ft 441 kts 318°
2026-05-05 10:28 -19.76401 148.46091 34043 ft 442 kts 317°
2026-05-05 10:29 -19.71576 148.42044 34043 ft 442 kts 318°
2026-05-05 10:29 -19.66779 148.38024 34039 ft 442 kts 318°
2026-05-05 10:30 -19.61940 148.33972 34042 ft 443 kts 318°
2026-05-05 10:30 -19.57101 148.29924 34039 ft 443 kts 318°
2026-05-05 10:31 -19.52259 148.25875 34043 ft 443 kts 318°
2026-05-05 10:31 -19.47415 148.21829 34039 ft 443 kts 318°
2026-05-05 10:32 -19.42565 148.17781 34040 ft 443 kts 318°
2026-05-05 10:32 -19.37742 148.13758 34040 ft 444 kts 318°
2026-05-05 10:33 -19.32886 148.09711 34039 ft 444 kts 318°
2026-05-05 10:33 -19.28033 148.05669 34040 ft 444 kts 318°
2026-05-05 10:34 -19.23168 148.01621 34040 ft 444 kts 318°
2026-05-05 10:34 -19.18306 147.97578 34040 ft 444 kts 318°
2026-05-05 10:35 -19.13441 147.93536 34044 ft 445 kts 318°
2026-05-05 10:35 -19.08604 147.89520 34038 ft 445 kts 318°
2026-05-05 10:36 -19.03735 147.85480 34037 ft 445 kts 318°
2026-05-05 10:36 -18.98860 147.81439 34035 ft 445 kts 318°
2026-05-05 10:37 -18.93981 147.77398 34039 ft 446 kts 319°
2026-05-05 10:37 -18.89099 147.73357 34036 ft 446 kts 319°
2026-05-05 10:38 -18.84212 147.69315 34036 ft 446 kts 319°
2026-05-05 10:38 -18.79320 147.65272 34034 ft 446 kts 319°
2026-05-05 10:39 -18.74430 147.61234 34036 ft 447 kts 319°
2026-05-05 10:39 -18.69530 147.57191 34044 ft 447 kts 319°
2026-05-05 10:40 -18.64629 147.53149 34048 ft 447 kts 319°
2026-05-05 10:40 -18.59746 147.49126 34033 ft 447 kts 319°
2026-05-05 10:41 -18.54841 147.45088 34041 ft 447 kts 319°
2026-05-05 10:41 -18.49936 147.41053 34043 ft 447 kts 319°
2026-05-05 10:42 -18.42566 147.34996 34041 ft 448 kts 319°
2026-05-05 10:43 -18.37654 147.30962 34043 ft 448 kts 319°
2026-05-05 10:43 -18.32735 147.26925 34032 ft 448 kts 319°
2026-05-05 10:44 -18.27815 147.22891 34038 ft 448 kts 319°
2026-05-05 10:44 -18.22926 147.18884 34033 ft 448 kts 319°
2026-05-05 10:45 -18.18004 147.14855 34041 ft 448 kts 319°
2026-05-05 10:45 -18.13078 147.10824 34039 ft 448 kts 319°
2026-05-05 10:46 -18.08142 147.06789 34044 ft 449 kts 319°
2026-05-05 10:46 -18.03208 147.02758 34041 ft 449 kts 319°
2026-05-05 10:47 -17.98301 146.98752 34036 ft 449 kts 319°
2026-05-05 10:47 -17.93367 146.94726 34036 ft 449 kts 320°
2026-05-05 10:48 -17.88425 146.90698 34035 ft 449 kts 320°
2026-05-05 10:48 -17.83483 146.86670 34039 ft 449 kts 320°
2026-05-05 10:49 -17.78540 146.82646 34039 ft 450 kts 320°
2026-05-05 10:49 -17.73620 146.78650 34035 ft 450 kts 320°
2026-05-05 10:50 -17.68662 146.74626 34036 ft 450 kts 320°
2026-05-05 10:50 -17.63705 146.70605 34036 ft 450 kts 320°
2026-05-05 10:51 -17.58745 146.66583 34036 ft 451 kts 320°
2026-05-05 10:51 -17.53782 146.62562 34036 ft 451 kts 320°
2026-05-05 10:52 -17.48820 146.58543 34034 ft 451 kts 320°
2026-05-05 10:52 -17.43856 146.54527 34032 ft 451 kts 320°
2026-05-05 10:53 -17.38888 146.50510 34033 ft 451 kts 320°
2026-05-05 10:53 -17.33917 146.46492 34033 ft 451 kts 320°
2026-05-05 10:54 -17.28947 146.42479 34034 ft 451 kts 320°
2026-05-05 10:54 -17.23973 146.38464 34038 ft 452 kts 320°
2026-05-05 10:55 -17.18991 146.34448 34039 ft 452 kts 320°
2026-05-05 10:55 -17.14045 146.30466 34037 ft 452 kts 320°
2026-05-05 10:56 -17.09060 146.26453 34034 ft 452 kts 320°
2026-05-05 10:56 -17.04036 146.22411 34037 ft 453 kts 320°
2026-05-05 10:57 -16.99077 146.18423 34034 ft 453 kts 320°
2026-05-05 10:57 -16.94074 146.14402 34034 ft 453 kts 320°
2026-05-05 10:58 -16.89072 146.10386 34036 ft 454 kts 320°
2026-05-05 10:58 -16.84058 146.06363 34028 ft 454 kts 320°
2026-05-05 10:59 -16.79049 146.02345 34032 ft 454 kts 320°
2026-05-05 10:59 -16.74033 145.98324 34030 ft 455 kts 320°
2026-05-05 11:00 -16.69136 145.94142 34029 ft 453 kts 315°
2026-05-05 11:00 -16.65568 145.90154 34036 ft 452 kts 310°
2026-05-05 11:01 -16.60664 145.84478 34028 ft 453 kts 311°
2026-05-05 11:01 -16.57120 145.80401 34030 ft 453 kts 311°
2026-05-05 11:02 -16.52872 145.75532 34033 ft 453 kts 311°
2026-05-05 11:02 -16.48650 145.70703 34033 ft 453 kts 311°
2026-05-05 11:03 -16.44400 145.65844 34031 ft 453 kts 311°
2026-05-05 11:03 -16.40150 145.60988 34035 ft 453 kts 311°
2026-05-05 11:04 -16.35897 145.56132 34035 ft 453 kts 311°
2026-05-05 11:04 -16.31644 145.51279 34038 ft 453 kts 311°
2026-05-05 11:05 -16.27391 145.46429 34038 ft 453 kts 311°
2026-05-05 11:05 -16.23137 145.41581 34045 ft 453 kts 311°
2026-05-05 11:06 -16.18884 145.36740 34049 ft 453 kts 311°
2026-05-05 11:06 -16.14625 145.31893 34046 ft 454 kts 311°
2026-05-05 11:07 -16.10385 145.27073 34046 ft 454 kts 311°
2026-05-05 11:07 -16.06114 145.22218 34046 ft 454 kts 311°
2026-05-05 11:08 -16.01839 145.17362 34045 ft 455 kts 311°
2026-05-05 11:08 -15.97568 145.12516 34037 ft 455 kts 311°
2026-05-05 11:09 -15.93290 145.07666 34039 ft 455 kts 311°
2026-05-05 11:09 -15.89012 145.02817 34033 ft 455 kts 311°
2026-05-05 11:10 -15.84761 144.98003 34028 ft 455 kts 311°
2026-05-05 11:10 -15.80469 144.93146 34028 ft 455 kts 311°
2026-05-05 11:11 -15.76183 144.88299 34022 ft 455 kts 311°
2026-05-05 11:11 -15.71893 144.83450 34044 ft 455 kts 311°
2026-05-05 11:12 -15.67631 144.78636 34036 ft 456 kts 311°
2026-05-05 11:12 -15.63328 144.73780 34008 ft 457 kts 311°
2026-05-05 11:13 -15.59028 144.68930 34006 ft 457 kts 311°
2026-05-05 11:13 -15.54723 144.64077 34008 ft 457 kts 311°
2026-05-05 11:14 -15.50414 144.59223 34017 ft 457 kts 311°
2026-05-05 11:14 -15.46102 144.54368 34020 ft 457 kts 311°
2026-05-05 11:15 -15.41795 144.49523 34014 ft 458 kts 311°
2026-05-05 11:15 -15.37474 144.44666 33993 ft 458 kts 311°
2026-05-05 11:16 -15.33173 144.39833 34004 ft 458 kts 311°
2026-05-05 11:16 -15.29011 144.35160 34004 ft 458 kts 311°
2026-05-05 11:17 -15.24601 144.30212 33997 ft 458 kts 311°
2026-05-05 11:17 -15.20325 144.25417 34002 ft 459 kts 311°
2026-05-05 11:18 -15.15890 144.20447 34000 ft 459 kts 311°
2026-05-05 11:18 -15.11547 144.15583 33996 ft 459 kts 311°
2026-05-05 11:19 -15.07195 144.10711 33993 ft 459 kts 311°
2026-05-05 11:19 -15.02887 144.05892 33992 ft 460 kts 311°
2026-05-05 11:20 -14.98524 144.01041 33992 ft 460 kts 313°
2026-05-05 11:20 -14.93867 143.96661 34001 ft 462 kts 316°
2026-05-05 11:21 -14.89104 143.92347 33994 ft 462 kts 316°
2026-05-05 11:21 -14.84120 143.87817 33995 ft 463 kts 316°
2026-05-05 11:22 -14.79289 143.83408 33991 ft 463 kts 316°
2026-05-05 11:22 -14.74455 143.78992 33994 ft 464 kts 316°
2026-05-05 11:23 -14.69647 143.74603 33991 ft 464 kts 316°
2026-05-05 11:23 -14.64805 143.70185 33991 ft 464 kts 316°
2026-05-05 11:24 -14.59962 143.65769 33994 ft 465 kts 316°
2026-05-05 11:24 -14.55118 143.61356 33995 ft 465 kts 316°
2026-05-05 11:25 -14.50265 143.56937 33992 ft 465 kts 316°
2026-05-05 11:25 -14.45408 143.52518 33991 ft 465 kts 316°
2026-05-05 11:26 -14.40550 143.48100 33994 ft 465 kts 316°
2026-05-05 11:26 -14.35689 143.43682 34001 ft 465 kts 316°
2026-05-05 11:27 -14.30828 143.39267 33993 ft 466 kts 316°
2026-05-05 11:27 -14.25959 143.34847 34003 ft 466 kts 316°
2026-05-05 11:28 -14.21121 143.30457 33994 ft 467 kts 316°
2026-05-05 11:28 -14.16241 143.26032 33998 ft 467 kts 316°
2026-05-05 11:29 -14.11359 143.21608 33995 ft 467 kts 316°
2026-05-05 11:29 -14.07298 143.17930 33986 ft 468 kts 316°
2026-05-05 11:30 -14.01585 143.12760 33996 ft 468 kts 316°
2026-05-05 11:30 -13.96688 143.08330 33995 ft 468 kts 316°
2026-05-05 11:31 -13.91790 143.03903 33990 ft 469 kts 316°
2026-05-05 11:31 -13.86921 142.99503 33987 ft 469 kts 317°
2026-05-05 11:32 -13.82014 142.95072 33992 ft 469 kts 317°
2026-05-05 11:32 -13.77108 142.90645 33987 ft 469 kts 317°
2026-05-05 11:33 -13.72191 142.86210 33986 ft 469 kts 317°
2026-05-05 11:33 -13.67277 142.81781 33983 ft 470 kts 317°
2026-05-05 11:34 -13.62352 142.77343 33981 ft 470 kts 317°
2026-05-05 11:34 -13.57466 142.72943 33981 ft 470 kts 317°
2026-05-05 11:35 -13.52511 142.68484 33979 ft 471 kts 317°
2026-05-05 11:35 -13.47619 142.64084 33983 ft 471 kts 317°
2026-05-05 11:36 -13.42681 142.59645 33979 ft 471 kts 317°
2026-05-05 11:36 -13.37743 142.55207 33976 ft 471 kts 317°
2026-05-05 11:37 -13.32804 142.50774 33978 ft 472 kts 317°
2026-05-05 11:37 -13.27860 142.46341 33979 ft 472 kts 317°
2026-05-05 11:38 -13.22911 142.41905 33975 ft 472 kts 317°
2026-05-05 11:38 -13.17955 142.37464 33966 ft 473 kts 317°
2026-05-05 11:39 -13.13005 142.33029 33969 ft 473 kts 317°
2026-05-05 11:39 -13.08044 142.28588 33970 ft 473 kts 317°
2026-05-05 11:40 -13.03115 142.24178 33967 ft 473 kts 317°
2026-05-05 11:40 -12.98118 142.19709 33970 ft 474 kts 317°
2026-05-05 11:41 -12.93183 142.15298 33964 ft 474 kts 317°
2026-05-05 11:41 -12.88209 142.10854 33966 ft 474 kts 317°
2026-05-05 11:42 -12.83238 142.06415 33964 ft 474 kts 317°
2026-05-05 11:42 -12.78249 142.01963 33965 ft 475 kts 317°
2026-05-05 11:43 -12.73267 141.97519 33962 ft 475 kts 317°
2026-05-05 11:43 -12.68273 141.93066 33959 ft 476 kts 317°
2026-05-05 11:44 -12.63519 141.88373 33965 ft 475 kts 314°
2026-05-05 11:44 -12.58907 141.83583 33955 ft 475 kts 313°
2026-05-05 11:45 -12.54262 141.78763 33957 ft 476 kts 314°
2026-05-05 11:45 -12.49598 141.73949 33961 ft 476 kts 314°
2026-05-05 11:46 -12.44920 141.69132 33953 ft 477 kts 314°
2026-05-05 11:46 -12.40242 141.64320 33952 ft 477 kts 314°
2026-05-05 11:47 -12.35559 141.59505 33955 ft 478 kts 314°
2026-05-05 11:47 -12.30868 141.54683 33952 ft 478 kts 314°
2026-05-05 11:48 -12.23823 141.47447 33950 ft 478 kts 314°
2026-05-05 11:48 -12.19124 141.42624 33953 ft 479 kts 314°
2026-05-05 11:49 -12.15218 141.38616 33952 ft 479 kts 314°
2026-05-05 11:49 -12.10510 141.33789 33952 ft 479 kts 314°
2026-05-05 11:50 -12.05801 141.28961 33949 ft 479 kts 314°
2026-05-05 11:50 -12.01084 141.24130 33951 ft 480 kts 314°
2026-05-05 11:51 -11.95607 141.18523 33945 ft 480 kts 314°
2026-05-05 11:51 -11.91682 141.14506 33948 ft 480 kts 314°
2026-05-05 11:52 -11.86960 141.09676 33951 ft 480 kts 314°
2026-05-05 11:52 -11.82238 141.04850 33949 ft 481 kts 314°
2026-05-05 11:53 -11.77511 141.00019 33950 ft 481 kts 314°
2026-05-05 11:53 -11.72779 140.95188 33948 ft 481 kts 314°
2026-05-05 11:54 -11.68047 140.90358 33944 ft 481 kts 314°
2026-05-05 11:54 -11.63302 140.85517 33945 ft 482 kts 314°
2026-05-05 11:55 -11.58596 140.80718 33944 ft 482 kts 314°
2026-05-05 11:55 -11.53851 140.75882 33947 ft 482 kts 314°
2026-05-05 11:56 -11.49100 140.71043 33947 ft 482 kts 314°
2026-05-05 11:56 -11.44350 140.66206 33947 ft 483 kts 314°
2026-05-05 11:57 -11.39600 140.61373 33945 ft 483 kts 314°
2026-05-05 11:57 -11.34839 140.56531 33944 ft 483 kts 314°
2026-05-05 11:58 -11.30077 140.51689 33945 ft 483 kts 314°
2026-05-05 11:58 -11.25310 140.46846 33944 ft 484 kts 314°
2026-05-05 11:59 -11.20568 140.42030 33941 ft 484 kts 314°
2026-05-05 11:59 -11.15795 140.37185 33943 ft 485 kts 314°
2026-05-05 12:00 -11.11017 140.32337 33947 ft 485 kts 314°
2026-05-05 12:00 -11.06235 140.27487 33944 ft 485 kts 314°
2026-05-05 12:01 -11.01450 140.22636 33941 ft 485 kts 314°
2026-05-05 12:01 -10.96659 140.17780 33942 ft 486 kts 315°
2026-05-05 12:02 -10.91863 140.12931 33947 ft 486 kts 315°
2026-05-05 12:02 -10.87064 140.08086 33948 ft 486 kts 315°
2026-05-05 12:03 -10.82265 140.03241 33944 ft 486 kts 315°
2026-05-05 12:03 -10.77494 139.98424 33943 ft 486 kts 315°
2026-05-05 12:04 -10.72690 139.93576 33944 ft 486 kts 315°
2026-05-05 12:04 -10.67886 139.88731 33945 ft 486 kts 315°
2026-05-05 12:05 -10.63106 139.83911 33941 ft 486 kts 315°
2026-05-05 12:05 -10.58305 139.79073 33944 ft 486 kts 315°
2026-05-05 12:06 -10.53503 139.74236 33941 ft 486 kts 315°
2026-05-05 12:06 -10.48699 139.69399 33939 ft 486 kts 315°
2026-05-05 12:07 -10.43892 139.64562 33941 ft 486 kts 315°
2026-05-05 12:07 -10.39085 139.59727 33938 ft 486 kts 315°
2026-05-05 12:08 -10.34276 139.54891 33939 ft 487 kts 315°
2026-05-05 12:08 -10.29458 139.50050 33939 ft 487 kts 315°
2026-05-05 12:09 -10.24642 139.45212 33941 ft 487 kts 315°
2026-05-05 12:09 -10.19803 139.40354 33945 ft 490 kts 315°
2026-05-05 12:10 -10.14921 139.35454 33949 ft 496 kts 315°
2026-05-05 12:10 -10.10071 139.30589 33936 ft 492 kts 315°
2026-05-05 12:11 -10.05175 139.25680 33945 ft 496 kts 315°
2026-05-05 12:11 -10.00280 139.20775 33939 ft 495 kts 315°
2026-05-05 12:12 -9.95361 139.15847 33935 ft 496 kts 315°
2026-05-05 12:12 -9.90452 139.10932 33943 ft 497 kts 315°
2026-05-05 12:13 -9.85528 139.06003 33936 ft 496 kts 315°
2026-05-05 12:13 -9.80613 139.01086 33947 ft 498 kts 315°
2026-05-05 12:14 -9.75679 138.96152 33934 ft 497 kts 315°
2026-05-05 12:14 -9.70736 138.91211 33944 ft 500 kts 315°
2026-05-05 12:15 -9.65806 138.86286 33935 ft 497 kts 315°
2026-05-05 12:15 -9.60876 138.81362 33948 ft 499 kts 315°
2026-05-05 12:16 -9.55916 138.76411 33936 ft 500 kts 315°
2026-05-05 12:16 -9.50980 138.71486 33941 ft 502 kts 315°
2026-05-05 12:17 -9.45984 138.66503 33930 ft 500 kts 315°
2026-05-05 12:17 -9.41062 138.61596 33934 ft 498 kts 315°
2026-05-05 12:18 -9.36145 138.56695 33928 ft 494 kts 315°
2026-05-05 12:18 -9.31251 138.51820 33932 ft 492 kts 315°
2026-05-05 12:19 -9.26360 138.46951 33942 ft 493 kts 315°
2026-05-05 12:19 -9.21458 138.42071 33941 ft 495 kts 315°
2026-05-05 12:20 -9.16526 138.37165 33943 ft 498 kts 315°
2026-05-05 12:20 -9.11596 138.32261 33940 ft 501 kts 315°
2026-05-05 12:21 -9.06585 138.27280 33940 ft 503 kts 315°
2026-05-05 12:21 -9.01621 138.22347 33937 ft 503 kts 315°
2026-05-05 12:22 -8.96626 138.17385 33932 ft 503 kts 315°
2026-05-05 12:22 -8.91636 138.12428 33933 ft 503 kts 315°
2026-05-05 12:23 -8.86641 138.07478 33936 ft 502 kts 316°
2026-05-05 12:23 -8.81254 138.02991 33946 ft 502 kts 322°
2026-05-05 12:24 -8.75668 137.98733 33933 ft 502 kts 322°
2026-05-05 12:24 -8.70091 137.94475 33934 ft 502 kts 322°
2026-05-05 12:25 -8.64525 137.90187 33931 ft 502 kts 322°
2026-05-05 12:25 -8.59009 137.85919 33930 ft 502 kts 322°
2026-05-05 12:26 -8.53462 137.81627 33931 ft 503 kts 322°
2026-05-05 12:26 -8.47897 137.77324 33930 ft 503 kts 322°
2026-05-05 12:27 -8.42338 137.73030 33929 ft 503 kts 322°
2026-05-05 12:27 -8.36780 137.68739 33927 ft 503 kts 322°
2026-05-05 12:28 -8.31222 137.64448 33930 ft 503 kts 322°
2026-05-05 12:28 -8.25662 137.60156 33927 ft 503 kts 322°
2026-05-05 12:29 -8.20100 137.55866 33926 ft 503 kts 322°
2026-05-05 12:29 -8.14539 137.51577 33926 ft 503 kts 322°
2026-05-05 12:30 -8.08970 137.47285 33925 ft 503 kts 322°
2026-05-05 12:30 -8.03407 137.42999 33926 ft 503 kts 322°
2026-05-05 12:31 -7.97841 137.38711 33923 ft 503 kts 322°
2026-05-05 12:31 -7.92311 137.34453 33926 ft 503 kts 322°
2026-05-05 12:32 -7.86750 137.30172 33923 ft 503 kts 322°
2026-05-05 12:32 -7.81191 137.25894 33923 ft 502 kts 322°
2026-05-05 12:33 -7.75631 137.21617 33928 ft 502 kts 322°
2026-05-05 12:33 -7.70075 137.17345 33918 ft 502 kts 322°
2026-05-05 12:34 -7.64522 137.13076 33922 ft 502 kts 322°
2026-05-05 12:34 -7.59002 137.08834 33922 ft 501 kts 322°
2026-05-05 12:35 -7.53452 137.04570 33920 ft 501 kts 322°
2026-05-05 12:35 -7.47906 137.00312 33920 ft 501 kts 322°
2026-05-05 12:36 -7.42362 136.96056 33919 ft 501 kts 322°
2026-05-05 12:36 -7.36808 136.91793 33921 ft 501 kts 322°
2026-05-05 12:37 -7.32187 136.88248 33916 ft 501 kts 322°
2026-05-05 12:37 -7.26636 136.83990 33913 ft 501 kts 322°
2026-05-05 12:38 -7.21083 136.79733 33913 ft 502 kts 322°
2026-05-05 12:38 -7.15530 136.75476 33916 ft 502 kts 322°
2026-05-05 12:39 -7.09968 136.71214 33913 ft 502 kts 322°
2026-05-05 12:39 -7.04402 136.66950 33914 ft 503 kts 322°
2026-05-05 12:40 -6.98838 136.62690 33914 ft 502 kts 322°
2026-05-05 12:40 -6.93273 136.58429 33912 ft 502 kts 322°
2026-05-05 12:41 -6.87726 136.54184 33908 ft 500 kts 323°
2026-05-05 12:41 -6.82188 136.49947 33909 ft 499 kts 323°
2026-05-05 12:42 -6.76703 136.45752 33908 ft 498 kts 323°
2026-05-05 12:42 -6.71183 136.41531 33907 ft 497 kts 323°
2026-05-05 12:43 -6.65680 136.37324 33911 ft 497 kts 323°
2026-05-05 12:43 -6.60174 136.33116 33909 ft 497 kts 323°
2026-05-05 12:44 -6.54667 136.28909 33910 ft 496 kts 323°
2026-05-05 12:44 -6.49178 136.24716 33909 ft 495 kts 323°
2026-05-05 12:45 -6.43721 136.20549 33907 ft 494 kts 323°
2026-05-05 12:45 -6.38247 136.16371 33910 ft 493 kts 323°
2026-05-05 12:46 -6.32797 136.12212 33904 ft 492 kts 324°
2026-05-05 12:46 -6.27353 136.08059 33905 ft 491 kts 323°
2026-05-05 12:47 -6.21912 136.03909 33912 ft 490 kts 324°
2026-05-05 12:47 -6.16486 135.99772 33909 ft 489 kts 324°
2026-05-05 12:48 -6.11070 135.95643 33911 ft 489 kts 324°
2026-05-05 12:48 -6.05654 135.91515 33909 ft 489 kts 324°
2026-05-05 12:49 -6.00234 135.87385 33908 ft 489 kts 324°
2026-05-05 12:49 -5.94812 135.83255 33908 ft 490 kts 324°
2026-05-05 12:50 -5.89375 135.79116 33906 ft 491 kts 324°
2026-05-05 12:50 -5.83961 135.74994 33907 ft 491 kts 324°
2026-05-05 12:51 -5.78505 135.70842 33907 ft 492 kts 324°
2026-05-05 12:51 -5.73049 135.66690 33904 ft 492 kts 324°
2026-05-05 12:52 -5.67587 135.62534 33907 ft 492 kts 324°
2026-05-05 12:52 -5.62120 135.58376 33905 ft 492 kts 323°
2026-05-05 12:53 -5.56658 135.54223 33909 ft 493 kts 324°
2026-05-05 12:53 -5.51192 135.50067 33911 ft 493 kts 324°
2026-05-05 12:54 -5.43021 135.43858 33905 ft 493 kts 324°
2026-05-05 12:55 -5.37555 135.39705 33903 ft 493 kts 323°
2026-05-05 12:55 -5.32075 135.35543 33907 ft 494 kts 323°
2026-05-05 12:56 -5.26582 135.31372 33912 ft 494 kts 323°
2026-05-05 12:56 -5.21091 135.27202 33910 ft 496 kts 323°
2026-05-05 12:57 -5.15582 135.23020 33913 ft 497 kts 323°
2026-05-05 12:57 -5.10062 135.18831 33906 ft 498 kts 323°
2026-05-05 12:58 -5.04569 135.14662 33907 ft 499 kts 323°
2026-05-05 12:58 -4.99023 135.10457 33911 ft 499 kts 323°
2026-05-05 12:59 -4.93475 135.06249 33911 ft 499 kts 323°
2026-05-05 12:59 -4.87933 135.02046 33908 ft 499 kts 324°
2026-05-05 13:00 -4.79624 134.95748 33908 ft 498 kts 324°
2026-05-05 13:01 -4.68612 134.87402 33911 ft 497 kts 324°
2026-05-05 13:01 -4.63068 134.83202 33911 ft 496 kts 324°
2026-05-05 13:02 -4.57602 134.79063 33910 ft 495 kts 324°
2026-05-05 13:02 -4.52106 134.74900 33911 ft 495 kts 324°
2026-05-05 13:03 -4.46590 134.70725 34101 ft 497 kts 324°
2026-05-05 13:03 -4.43834 134.68639 34419 ft 495 kts 324°
2026-05-05 13:03 -4.41096 134.66566 34742 ft 493 kts 324°
2026-05-05 13:04 -4.38353 134.64490 35046 ft 492 kts 324°
2026-05-05 13:04 -4.35624 134.62425 35315 ft 491 kts 324°
2026-05-05 13:04 -4.32900 134.60364 35562 ft 491 kts 323°
2026-05-05 13:04 -4.30211 134.58329 35797 ft 491 kts 323°
2026-05-05 13:05 -4.24720 134.54175 35884 ft 494 kts 323°
2026-05-05 13:05 -4.19252 134.50039 35904 ft 490 kts 323°
2026-05-05 13:06 -4.13821 134.45931 35916 ft 488 kts 323°
2026-05-05 13:06 -4.08400 134.41833 35918 ft 487 kts 323°
2026-05-05 13:07 -4.03025 134.37770 35922 ft 487 kts 323°
2026-05-05 13:07 -3.97610 134.33677 35922 ft 488 kts 323°
2026-05-05 13:08 -3.92176 134.29570 35931 ft 490 kts 323°
2026-05-05 13:08 -3.86722 134.25449 35932 ft 491 kts 323°
2026-05-05 13:09 -3.81253 134.21317 35935 ft 493 kts 323°
2026-05-05 13:09 -3.75775 134.17179 35934 ft 493 kts 323°
2026-05-05 13:10 -3.70296 134.13042 35940 ft 493 kts 323°
2026-05-05 13:10 -3.64818 134.08905 35931 ft 493 kts 323°
2026-05-05 13:11 -3.59354 134.04779 35940 ft 492 kts 323°
2026-05-05 13:11 -3.53890 134.00654 35939 ft 492 kts 323°
2026-05-05 13:12 -3.48430 133.96533 35938 ft 492 kts 323°
2026-05-05 13:12 -3.43002 133.92438 35935 ft 492 kts 323°
2026-05-05 13:13 -3.37537 133.88314 35935 ft 492 kts 323°
2026-05-05 13:13 -3.32065 133.84185 35925 ft 493 kts 323°
2026-05-05 13:14 -3.26585 133.80051 35926 ft 493 kts 323°
2026-05-05 13:14 -3.21107 133.75919 35929 ft 493 kts 323°
2026-05-05 13:15 -3.15619 133.71780 35919 ft 494 kts 323°
2026-05-05 13:15 -3.10126 133.67638 35916 ft 494 kts 323°
2026-05-05 13:16 -3.04669 133.63522 35913 ft 495 kts 323°
2026-05-05 13:16 -2.99166 133.59367 35913 ft 495 kts 323°
2026-05-05 13:17 -2.93768 133.55090 35911 ft 495 kts 321°
2026-05-05 13:17 -2.88415 133.50742 35914 ft 496 kts 321°
2026-05-05 13:18 -2.83054 133.46401 35912 ft 496 kts 321°
2026-05-05 13:18 -2.77679 133.42075 35910 ft 496 kts 322°
2026-05-05 13:19 -2.72292 133.37751 35911 ft 496 kts 322°
2026-05-05 13:19 -2.66906 133.33429 35909 ft 497 kts 322°
2026-05-05 13:20 -2.61518 133.29105 35911 ft 497 kts 322°
2026-05-05 13:20 -2.56121 133.24774 35906 ft 497 kts 322°
2026-05-05 13:21 -2.50727 133.20444 35909 ft 497 kts 321°
2026-05-05 13:21 -2.45328 133.16112 35912 ft 498 kts 321°
2026-05-05 13:22 -2.39959 133.11803 35910 ft 498 kts 321°
2026-05-05 13:22 -2.34551 133.07465 35906 ft 498 kts 321°
2026-05-05 13:23 -2.29145 133.03127 35910 ft 498 kts 321°
2026-05-05 13:23 -2.23739 132.98791 35906 ft 498 kts 321°
2026-05-05 13:24 -2.19241 132.95183 35905 ft 498 kts 321°
2026-05-05 13:24 -2.13826 132.90840 35909 ft 499 kts 321°
2026-05-05 13:25 -2.08437 132.86519 35907 ft 499 kts 322°
2026-05-05 13:25 -2.03018 132.82174 35910 ft 499 kts 322°
2026-05-05 13:26 -1.97602 132.77831 35910 ft 499 kts 322°
2026-05-05 13:26 -1.92181 132.73485 35911 ft 499 kts 322°
2026-05-05 13:27 -1.86761 132.69141 35907 ft 499 kts 322°
2026-05-05 13:27 -1.81347 132.64801 35909 ft 498 kts 322°
2026-05-05 13:28 -1.75932 132.60461 35910 ft 498 kts 322°
2026-05-05 13:28 -1.70565 132.56159 35915 ft 498 kts 322°
2026-05-05 13:29 -1.65159 132.51826 35917 ft 498 kts 322°
2026-05-05 13:29 -1.59759 132.47499 35916 ft 497 kts 322°
2026-05-05 13:30 -1.54365 132.43176 35917 ft 497 kts 322°
2026-05-05 13:30 -1.48969 132.38853 35922 ft 497 kts 322°
2026-05-05 13:31 -1.43608 132.34558 35926 ft 496 kts 322°
2026-05-05 13:31 -1.38217 132.30239 35924 ft 497 kts 322°
2026-05-05 13:32 -1.32824 132.25919 35928 ft 497 kts 322°
2026-05-05 13:32 -1.27428 132.21597 35933 ft 497 kts 322°
2026-05-05 13:33 -1.22030 132.17273 35932 ft 497 kts 322°
2026-05-05 13:33 -1.16632 132.12950 35936 ft 497 kts 322°
2026-05-05 13:34 -1.11231 132.08624 35930 ft 497 kts 322°
2026-05-05 13:34 -1.05831 132.04299 35933 ft 497 kts 322°
2026-05-05 13:35 -1.00431 131.99974 35931 ft 497 kts 322°
2026-05-05 13:35 -0.95034 131.95652 35929 ft 497 kts 322°
2026-05-05 13:36 -0.89635 131.91329 35928 ft 497 kts 322°
2026-05-05 13:36 -0.84269 131.87032 35921 ft 497 kts 322°
2026-05-05 13:37 -0.78865 131.82705 35921 ft 497 kts 322°
2026-05-05 13:37 -0.73455 131.78374 35916 ft 497 kts 322°
2026-05-05 13:38 -0.68054 131.74049 35910 ft 497 kts 322°
2026-05-05 13:38 -0.62653 131.69725 35907 ft 498 kts 321°
2026-05-05 13:39 -0.57280 131.65423 35908 ft 498 kts 322°
2026-05-05 13:39 -0.51869 131.61091 35900 ft 498 kts 322°
2026-05-05 13:40 -0.46460 131.56761 35901 ft 498 kts 321°
2026-05-05 13:40 -0.41043 131.52424 35902 ft 498 kts 321°
2026-05-05 13:41 -0.35664 131.48118 35898 ft 498 kts 321°
2026-05-05 13:41 -0.30245 131.43780 35899 ft 499 kts 321°
2026-05-05 13:42 -0.24830 131.39446 35897 ft 499 kts 321°
2026-05-05 13:42 -0.19411 131.35108 35900 ft 499 kts 322°
2026-05-05 13:43 -0.13997 131.30773 35901 ft 499 kts 322°
2026-05-05 13:43 -0.08574 131.26433 35900 ft 499 kts 322°
2026-05-05 13:44 -0.03161 131.22099 35902 ft 498 kts 322°
2026-05-05 13:44 0.02249 131.17768 35902 ft 498 kts 322°
2026-05-05 13:45 0.07623 131.13467 35901 ft 498 kts 322°
2026-05-05 13:45 0.13031 131.09137 35900 ft 498 kts 322°
2026-05-05 13:46 0.18435 131.04811 35899 ft 498 kts 322°
2026-05-05 13:46 0.23832 131.00491 35898 ft 497 kts 322°
2026-05-05 13:47 0.29237 130.96164 35896 ft 498 kts 322°
2026-05-05 13:47 0.34642 130.91838 35897 ft 498 kts 322°
2026-05-05 13:48 0.40048 130.87510 35898 ft 498 kts 322°
2026-05-05 13:48 0.45460 130.83177 35895 ft 498 kts 322°
2026-05-05 13:49 0.50868 130.78848 35901 ft 498 kts 322°
2026-05-05 13:49 0.56276 130.74518 35899 ft 498 kts 322°
2026-05-05 13:50 0.61686 130.70186 35896 ft 498 kts 322°
2026-05-05 13:50 0.67098 130.65854 35895 ft 498 kts 322°
2026-05-05 13:51 0.72469 130.61554 35899 ft 498 kts 322°
2026-05-05 13:51 0.77883 130.57218 35897 ft 498 kts 322°
2026-05-05 13:52 0.83291 130.52888 35896 ft 498 kts 322°
2026-05-05 13:52 0.88699 130.48558 35895 ft 498 kts 322°
2026-05-05 13:53 0.94097 130.44235 35896 ft 497 kts 322°
2026-05-05 13:53 0.99498 130.39910 35893 ft 497 kts 322°
2026-05-05 13:54 1.04893 130.35590 35892 ft 497 kts 322°
2026-05-05 13:54 1.10258 130.31293 35897 ft 497 kts 322°
2026-05-05 13:55 1.15654 130.26971 35892 ft 497 kts 322°
2026-05-05 13:55 1.21051 130.22649 35894 ft 497 kts 322°
2026-05-05 13:56 1.26449 130.18325 35893 ft 497 kts 322°
2026-05-05 13:56 1.31845 130.14002 35893 ft 497 kts 322°
2026-05-05 13:57 1.37250 130.09673 35893 ft 497 kts 322°
2026-05-05 13:57 1.42651 130.05345 35892 ft 498 kts 322°
2026-05-05 13:58 1.48055 130.01016 35894 ft 498 kts 322°
2026-05-05 13:58 1.53428 129.96710 35893 ft 498 kts 322°
2026-05-05 13:59 1.61544 129.90207 35891 ft 499 kts 322°
2026-05-05 14:00 1.68751 129.84431 35893 ft 499 kts 322°
2026-05-05 14:00 1.75086 129.79353 35895 ft 499 kts 322°
2026-05-05 14:01 1.80502 129.75012 35893 ft 499 kts 322°
2026-05-05 14:01 1.85895 129.70688 35892 ft 500 kts 322°
2026-05-05 14:02 1.91317 129.66340 35891 ft 500 kts 322°
2026-05-05 14:02 1.96750 129.61989 35894 ft 500 kts 323°
2026-05-05 14:03 2.02274 129.57768 35894 ft 500 kts 324°
2026-05-05 14:03 2.07853 129.53609 35893 ft 500 kts 324°
2026-05-05 14:04 2.13428 129.49436 35895 ft 500 kts 324°
2026-05-05 14:04 2.18988 129.45247 35892 ft 500 kts 324°
2026-05-05 14:05 2.24549 129.41047 35891 ft 500 kts 324°
2026-05-05 14:05 2.30100 129.36854 35896 ft 500 kts 324°
2026-05-05 14:06 2.35658 129.32657 35898 ft 500 kts 324°
2026-05-05 14:06 2.41180 129.28487 35891 ft 501 kts 324°
2026-05-05 14:07 2.46738 129.24290 35893 ft 501 kts 324°
2026-05-05 14:07 2.52301 129.20089 35890 ft 501 kts 324°
2026-05-05 14:08 2.57869 129.15884 35892 ft 501 kts 324°
2026-05-05 14:08 2.63433 129.11681 35894 ft 501 kts 323°
2026-05-05 14:09 2.69001 129.07474 35893 ft 501 kts 323°
2026-05-05 14:09 2.74565 129.03270 35894 ft 501 kts 323°
2026-05-05 14:10 2.80130 128.99064 35892 ft 501 kts 323°
2026-05-05 14:10 2.85657 128.94887 35892 ft 501 kts 323°
2026-05-05 14:11 2.91228 128.90677 35895 ft 501 kts 323°
2026-05-05 14:11 2.96784 128.86476 35896 ft 500 kts 323°
2026-05-05 14:12 3.02338 128.82277 35898 ft 500 kts 323°
2026-05-05 14:12 3.07897 128.78074 35896 ft 500 kts 323°
2026-05-05 14:13 3.13447 128.73876 35897 ft 500 kts 323°
2026-05-05 14:13 3.18059 128.70388 35898 ft 499 kts 323°
2026-05-05 14:14 3.23604 128.66193 35892 ft 499 kts 323°
2026-05-05 14:14 3.29149 128.61999 35895 ft 499 kts 323°
2026-05-05 14:15 3.34691 128.57805 35895 ft 499 kts 323°
2026-05-05 14:15 3.40193 128.53641 35894 ft 499 kts 323°
2026-05-05 14:16 3.45737 128.49445 35897 ft 499 kts 323°
2026-05-05 14:16 3.51272 128.45255 35897 ft 499 kts 323°
2026-05-05 14:17 3.56813 128.41060 35896 ft 499 kts 323°
2026-05-05 14:17 3.62349 128.36867 35896 ft 499 kts 323°
2026-05-05 14:18 3.67853 128.32699 35894 ft 499 kts 323°
2026-05-05 14:18 3.73387 128.28506 35893 ft 499 kts 323°
2026-05-05 14:19 3.78928 128.24309 35895 ft 499 kts 323°
2026-05-05 14:19 3.84467 128.20111 35892 ft 499 kts 323°
2026-05-05 14:20 3.90011 128.15909 35895 ft 499 kts 323°
2026-05-05 14:20 3.95551 128.11709 35893 ft 499 kts 323°
2026-05-05 14:21 4.01086 128.07510 35893 ft 499 kts 323°
2026-05-05 14:21 4.06597 128.03275 35896 ft 499 kts 322°
2026-05-05 14:22 4.12095 127.99023 35893 ft 499 kts 322°
2026-05-05 14:22 4.17562 127.94797 35893 ft 499 kts 322°
2026-05-05 14:23 4.23065 127.90550 35894 ft 499 kts 322°
2026-05-05 14:23 4.28572 127.86301 35891 ft 499 kts 322°
2026-05-05 14:24 4.34082 127.82048 35897 ft 499 kts 322°
2026-05-05 14:24 4.39590 127.77797 35897 ft 499 kts 322°
2026-05-05 14:25 4.45092 127.73548 35893 ft 499 kts 322°
2026-05-05 14:25 4.50598 127.69296 35894 ft 499 kts 322°
2026-05-05 14:26 4.56102 127.65045 35893 ft 499 kts 322°
2026-05-05 14:26 4.61606 127.60793 35894 ft 499 kts 322°
2026-05-05 14:27 4.67112 127.56539 35898 ft 500 kts 322°
2026-05-05 14:27 4.72588 127.52306 35896 ft 500 kts 322°
2026-05-05 14:28 4.78094 127.48050 35895 ft 500 kts 322°
2026-05-05 14:28 4.83602 127.43791 35894 ft 500 kts 322°
2026-05-05 14:29 4.89109 127.39533 35895 ft 500 kts 322°
2026-05-05 14:29 4.94617 127.35272 35896 ft 500 kts 322°
2026-05-05 14:30 5.00124 127.31012 35895 ft 500 kts 322°
2026-05-05 14:30 5.05628 127.26752 35895 ft 500 kts 322°
2026-05-05 14:31 5.11130 127.22493 35898 ft 500 kts 322°
2026-05-05 14:31 5.16634 127.18232 35898 ft 500 kts 322°
2026-05-05 14:32 5.22140 127.13969 35894 ft 500 kts 322°
2026-05-05 14:32 5.27649 127.09702 35897 ft 500 kts 322°
2026-05-05 14:33 5.33154 127.05436 35896 ft 500 kts 322°
2026-05-05 14:33 5.38636 127.01189 35893 ft 500 kts 322°
2026-05-05 14:34 5.44148 126.96917 35896 ft 500 kts 322°
2026-05-05 14:34 5.49657 126.92646 35896 ft 501 kts 322°
2026-05-05 14:35 5.55173 126.88368 35900 ft 501 kts 322°
2026-05-05 14:35 5.60687 126.84091 35899 ft 501 kts 322°
2026-05-05 14:36 5.66209 126.79807 35896 ft 501 kts 322°
2026-05-05 14:36 5.71729 126.75523 35894 ft 502 kts 322°
2026-05-05 14:37 5.77258 126.71232 35895 ft 502 kts 322°
2026-05-05 14:37 5.82790 126.66937 35896 ft 502 kts 322°
2026-05-05 14:38 5.88314 126.62646 35899 ft 502 kts 322°
2026-05-05 14:38 5.93807 126.58379 35898 ft 502 kts 322°
2026-05-05 14:39 5.99331 126.54087 35896 ft 502 kts 322°
2026-05-05 14:39 6.04858 126.49791 35897 ft 502 kts 322°
2026-05-05 14:40 6.10386 126.45493 35896 ft 502 kts 322°
2026-05-05 14:40 6.15920 126.41190 35898 ft 502 kts 322°
2026-05-05 14:41 6.21446 126.36892 35898 ft 502 kts 322°
2026-05-05 14:41 6.26975 126.32589 35897 ft 502 kts 322°
2026-05-05 14:42 6.32493 126.28295 35899 ft 501 kts 322°
2026-05-05 14:42 6.38007 126.24002 35897 ft 501 kts 322°
2026-05-05 14:43 6.43517 126.19712 35904 ft 501 kts 322°
2026-05-05 14:43 6.49026 126.15420 35898 ft 501 kts 322°
2026-05-05 14:44 6.54529 126.11132 35903 ft 500 kts 322°
2026-05-05 14:44 6.60032 126.06842 35896 ft 500 kts 322°
2026-05-05 14:45 6.65488 126.02588 35901 ft 498 kts 322°
2026-05-05 14:45 6.70965 125.98316 35901 ft 498 kts 322°
2026-05-05 14:46 6.76428 125.94056 35900 ft 497 kts 322°
2026-05-05 14:46 6.81890 125.89795 35902 ft 496 kts 322°
2026-05-05 14:47 6.87354 125.85531 35907 ft 496 kts 322°
2026-05-05 14:47 6.92804 125.81278 35911 ft 496 kts 322°
2026-05-05 14:48 6.98261 125.77016 35916 ft 496 kts 322°
2026-05-05 14:48 7.03715 125.72755 35915 ft 496 kts 322°
2026-05-05 14:49 7.09169 125.68492 35918 ft 496 kts 322°
2026-05-05 14:49 7.14759 125.64482 35920 ft 497 kts 330°
2026-05-05 14:50 7.20885 125.61282 35918 ft 497 kts 333°
2026-05-05 14:50 7.27074 125.58153 35916 ft 497 kts 333°
2026-05-05 14:51 7.33239 125.54970 35918 ft 498 kts 333°
2026-05-05 14:51 7.39391 125.51768 35922 ft 498 kts 333°
2026-05-05 14:52 7.45551 125.48568 35928 ft 498 kts 333°
2026-05-05 14:52 7.51718 125.45363 35932 ft 499 kts 332°
2026-05-05 14:53 7.57889 125.42152 35935 ft 499 kts 332°
2026-05-05 14:53 7.64064 125.38939 35937 ft 500 kts 332°
2026-05-05 14:54 7.70242 125.35723 35943 ft 500 kts 332°
2026-05-05 14:54 7.76420 125.32506 35947 ft 500 kts 332°
2026-05-05 14:55 7.82599 125.29286 35949 ft 500 kts 332°
2026-05-05 14:55 7.88773 125.26068 35948 ft 500 kts 332°
2026-05-05 14:56 7.94954 125.22846 35960 ft 500 kts 333°
2026-05-05 14:56 8.01132 125.19628 35970 ft 499 kts 333°
2026-05-05 14:57 8.07272 125.16434 35967 ft 499 kts 333°
2026-05-05 14:57 8.13442 125.13221 35974 ft 499 kts 333°
2026-05-05 14:58 8.19604 125.10011 35976 ft 498 kts 333°
2026-05-05 14:58 8.25764 125.06800 35975 ft 498 kts 333°
2026-05-05 14:59 8.31914 125.03592 35977 ft 497 kts 333°
2026-05-05 14:59 8.38064 125.00385 35976 ft 497 kts 333°
2026-05-05 15:00 8.43167 124.97721 35967 ft 497 kts 333°
2026-05-05 15:00 8.49317 124.94508 35965 ft 497 kts 332°
2026-05-05 15:01 8.55462 124.91296 35958 ft 497 kts 332°
2026-05-05 15:01 8.61607 124.88083 35950 ft 497 kts 332°
2026-05-05 15:02 8.67715 124.84888 35942 ft 497 kts 332°
2026-05-05 15:02 8.73868 124.81668 35933 ft 498 kts 332°
2026-05-05 15:03 8.80018 124.78448 35924 ft 498 kts 332°
2026-05-05 15:03 8.86175 124.75227 35923 ft 498 kts 332°
2026-05-05 15:04 8.92337 124.72002 35921 ft 499 kts 332°
2026-05-05 15:04 8.98509 124.68768 35917 ft 499 kts 332°
2026-05-05 15:05 9.07762 124.63920 35913 ft 499 kts 332°
2026-05-05 15:06 9.13892 124.60705 35917 ft 499 kts 332°
2026-05-05 15:06 9.20068 124.57464 35908 ft 499 kts 332°
2026-05-05 15:07 9.26232 124.54228 35911 ft 499 kts 332°
2026-05-05 15:07 9.32404 124.50986 35910 ft 499 kts 332°
2026-05-05 15:08 9.38563 124.47749 35909 ft 499 kts 332°
2026-05-05 15:08 9.44720 124.44512 35914 ft 498 kts 332°
2026-05-05 15:09 9.50872 124.41276 35918 ft 498 kts 332°
2026-05-05 15:09 9.57023 124.38040 35920 ft 498 kts 332°
2026-05-05 15:10 9.63171 124.34806 35921 ft 498 kts 332°
2026-05-05 15:10 9.69320 124.31569 35920 ft 498 kts 332°
2026-05-05 15:11 9.75474 124.28328 35923 ft 498 kts 332°
2026-05-05 15:11 9.81587 124.25107 35927 ft 499 kts 332°
2026-05-05 15:12 9.87750 124.21857 35924 ft 499 kts 332°
2026-05-05 15:12 9.93909 124.18609 35924 ft 499 kts 332°
2026-05-05 15:13 10.00071 124.15359 35917 ft 499 kts 332°
2026-05-05 15:13 10.06224 124.12112 35914 ft 498 kts 332°
2026-05-05 15:14 10.12379 124.08862 35910 ft 498 kts 332°
2026-05-05 15:14 10.18524 124.05616 35916 ft 498 kts 332°
2026-05-05 15:15 10.24668 124.02368 35916 ft 497 kts 332°
2026-05-05 15:15 10.30801 123.99110 35919 ft 497 kts 330°
2026-05-05 15:16 10.36561 123.95333 35920 ft 496 kts 324°
2026-05-05 15:16 10.42226 123.91323 35916 ft 496 kts 324°
2026-05-05 15:17 10.47906 123.87337 35912 ft 496 kts 324°
2026-05-05 15:17 10.53604 123.83375 35903 ft 496 kts 325°
2026-05-05 15:18 10.59302 123.79415 35889 ft 496 kts 324°
2026-05-05 15:18 10.64992 123.75457 35889 ft 495 kts 324°
2026-05-05 15:19 10.70679 123.71499 35888 ft 495 kts 324°
2026-05-05 15:19 10.76357 123.67547 35893 ft 494 kts 324°
2026-05-05 15:20 10.82028 123.63596 35893 ft 494 kts 324°
2026-05-05 15:20 10.87697 123.59644 35895 ft 493 kts 324°
2026-05-05 15:21 10.93319 123.55722 35894 ft 493 kts 324°
2026-05-05 15:21 10.98980 123.51772 35893 ft 493 kts 324°
2026-05-05 15:22 11.04638 123.47824 35898 ft 493 kts 324°
2026-05-05 15:22 11.10295 123.43875 35899 ft 493 kts 324°
2026-05-05 15:23 11.15955 123.39921 35899 ft 493 kts 324°
2026-05-05 15:23 11.21616 123.35965 35899 ft 493 kts 324°
2026-05-05 15:24 11.27235 123.32035 35902 ft 493 kts 324°
2026-05-05 15:24 11.32884 123.28083 35902 ft 492 kts 324°
2026-05-05 15:25 11.38530 123.24130 35907 ft 492 kts 324°
2026-05-05 15:25 11.44176 123.20176 35909 ft 492 kts 324°
2026-05-05 15:26 11.49814 123.16225 35910 ft 491 kts 324°
2026-05-05 15:26 11.55449 123.12274 35911 ft 491 kts 324°
2026-05-05 15:27 11.61081 123.08323 35912 ft 491 kts 324°
2026-05-05 15:27 11.66705 123.04377 35917 ft 491 kts 324°
2026-05-05 15:28 11.72333 123.00425 35919 ft 491 kts 324°
2026-05-05 15:28 11.77957 122.96474 35918 ft 491 kts 324°
2026-05-05 15:29 11.83581 122.92522 35919 ft 491 kts 324°
2026-05-05 15:29 11.89206 122.88566 35922 ft 491 kts 324°
2026-05-05 15:30 11.94829 122.84610 35922 ft 491 kts 324°
2026-05-05 15:30 12.00413 122.80679 35922 ft 491 kts 323°
2026-05-05 15:31 12.06038 122.76717 35922 ft 491 kts 324°
2026-05-05 15:31 12.11666 122.72751 35924 ft 491 kts 323°
2026-05-05 15:32 12.17285 122.68789 35922 ft 491 kts 323°
2026-05-05 15:32 12.22907 122.64824 35924 ft 491 kts 323°
2026-05-05 15:33 12.28530 122.60854 35923 ft 491 kts 323°
2026-05-05 15:33 12.34154 122.56881 35925 ft 491 kts 323°
2026-05-05 15:34 12.39779 122.52908 35921 ft 491 kts 323°
2026-05-05 15:34 12.45411 122.48929 35924 ft 492 kts 323°
2026-05-05 15:35 12.51004 122.44974 35920 ft 491 kts 323°
2026-05-05 15:35 12.56626 122.40996 35924 ft 491 kts 323°
2026-05-05 15:36 12.62242 122.37019 35923 ft 491 kts 323°
2026-05-05 15:36 12.67860 122.33039 35926 ft 491 kts 323°
2026-05-05 15:37 12.73474 122.29060 35924 ft 490 kts 323°
2026-05-05 15:37 12.79084 122.25080 35922 ft 490 kts 323°
2026-05-05 15:38 12.84695 122.21099 35926 ft 490 kts 323°
2026-05-05 15:38 12.90306 122.17115 35926 ft 490 kts 323°
2026-05-05 15:39 12.95918 122.13128 35924 ft 490 kts 323°
2026-05-05 15:39 13.01526 122.09142 35929 ft 490 kts 323°
2026-05-05 15:40 13.07134 122.05153 35926 ft 490 kts 323°
2026-05-05 15:40 13.12704 122.01190 35928 ft 490 kts 323°
2026-05-05 15:41 13.18310 121.97198 35929 ft 490 kts 323°
2026-05-05 15:41 13.23914 121.93206 35933 ft 490 kts 323°
2026-05-05 15:42 13.29513 121.89215 35936 ft 490 kts 323°
2026-05-05 15:42 13.35111 121.85221 35929 ft 490 kts 323°
2026-05-05 15:43 13.40712 121.81225 35928 ft 490 kts 323°
2026-05-05 15:43 13.46307 121.77229 35932 ft 490 kts 323°
2026-05-05 15:44 13.51900 121.73233 35933 ft 490 kts 323°
2026-05-05 15:44 13.57493 121.69234 35932 ft 489 kts 323°
2026-05-05 15:45 13.63082 121.65235 35932 ft 489 kts 323°
2026-05-05 15:45 13.68664 121.61239 35927 ft 489 kts 323°
2026-05-05 15:46 13.74242 121.57246 35930 ft 489 kts 323°
2026-05-05 15:46 13.78879 121.53925 35935 ft 488 kts 323°
2026-05-05 15:47 13.84448 121.49923 35938 ft 488 kts 323°
2026-05-05 15:47 13.90014 121.45929 35938 ft 488 kts 323°
2026-05-05 15:48 13.95578 121.41938 35939 ft 487 kts 323°
2026-05-05 15:48 14.01140 121.37945 35939 ft 487 kts 323°
2026-05-05 15:49 14.06697 121.33952 35934 ft 487 kts 323°
2026-05-05 15:49 14.12213 121.29986 35930 ft 487 kts 323°
2026-05-05 15:50 14.17766 121.25990 35931 ft 486 kts 323°
2026-05-05 15:50 14.23306 121.22002 35915 ft 486 kts 323°
2026-05-05 15:51 14.28847 121.18009 35918 ft 486 kts 323°
2026-05-05 15:51 14.34385 121.14015 35921 ft 485 kts 323°
2026-05-05 15:52 14.39914 121.10027 35923 ft 485 kts 323°
2026-05-05 15:52 14.45450 121.06033 35913 ft 485 kts 323°
2026-05-05 15:53 14.50971 121.02046 35912 ft 484 kts 323°
2026-05-05 15:53 14.56549 120.98219 35924 ft 484 kts 325°
2026-05-05 15:54 14.62208 120.94438 35914 ft 484 kts 325°
2026-05-05 15:54 14.67855 120.90623 35902 ft 484 kts 324°
2026-05-05 15:55 14.73481 120.86805 35910 ft 484 kts 324°
2026-05-05 15:55 14.79101 120.82990 35898 ft 484 kts 324°
2026-05-05 15:56 14.84728 120.79170 35903 ft 484 kts 324°
2026-05-05 15:56 14.90356 120.75347 35911 ft 484 kts 324°
2026-05-05 15:57 14.95991 120.71517 35933 ft 484 kts 324°
2026-05-05 15:57 15.01574 120.67717 35951 ft 483 kts 324°
2026-05-05 15:58 15.07195 120.63892 35966 ft 483 kts 324°
2026-05-05 15:58 15.12814 120.60066 35960 ft 483 kts 324°
2026-05-05 15:59 15.18432 120.56251 35968 ft 483 kts 326°
2026-05-05 15:59 15.24300 120.52843 35973 ft 484 kts 329°
2026-05-05 16:00 15.30242 120.49558 35966 ft 484 kts 329°
2026-05-05 16:00 15.36169 120.46240 35960 ft 484 kts 329°
2026-05-05 16:01 15.42084 120.42907 35945 ft 483 kts 329°
2026-05-05 16:01 15.47949 120.39604 35935 ft 483 kts 329°
2026-05-05 16:02 15.53855 120.36275 35928 ft 483 kts 329°
2026-05-05 16:02 15.59740 120.32956 35928 ft 483 kts 329°
2026-05-05 16:03 15.65656 120.29618 35930 ft 482 kts 329°
2026-05-05 16:03 15.71555 120.26287 35929 ft 483 kts 329°
2026-05-05 16:04 15.77453 120.22950 35921 ft 483 kts 329°
2026-05-05 16:04 15.83355 120.19611 35913 ft 482 kts 329°
2026-05-05 16:05 15.89251 120.16276 35921 ft 482 kts 329°
2026-05-05 16:05 15.95150 120.12936 35918 ft 483 kts 329°
2026-05-05 16:06 16.01011 120.09615 35923 ft 483 kts 329°
2026-05-05 16:06 16.06913 120.06270 35912 ft 484 kts 328°
2026-05-05 16:07 16.12825 120.02920 35911 ft 484 kts 329°
2026-05-05 16:07 16.18735 119.99574 35904 ft 483 kts 329°
2026-05-05 16:08 16.24634 119.96223 35909 ft 483 kts 329°
2026-05-05 16:08 16.30531 119.92869 35908 ft 483 kts 329°
2026-05-05 16:09 16.36423 119.89515 35905 ft 482 kts 328°
2026-05-05 16:09 16.42313 119.86162 35905 ft 482 kts 328°
2026-05-05 16:10 16.48197 119.82809 35906 ft 482 kts 328°
2026-05-05 16:10 16.54080 119.79456 35909 ft 482 kts 328°
2026-05-05 16:11 16.59960 119.76101 35909 ft 482 kts 328°
2026-05-05 16:12 16.71710 119.69390 35908 ft 481 kts 328°
2026-05-05 16:13 16.86358 119.61011 35914 ft 481 kts 328°
2026-05-05 16:13 16.92232 119.57647 35912 ft 481 kts 328°
2026-05-05 16:14 17.03955 119.50925 35910 ft 480 kts 328°
2026-05-05 16:15 17.15631 119.44221 35908 ft 480 kts 328°
2026-05-05 16:16 17.27327 119.37495 35910 ft 479 kts 328°
2026-05-05 16:17 17.36099 119.32445 35909 ft 479 kts 328°